Location: Unspecified
(51.0000°N, 12.0000°E)
Time: 16:19:50
(UTC+02:00)

OTV 5 (USA 277) - Pass Details

Date: 01 May 2019
Orbit: 310 x 325 km, 54.5° (Epoch: 08 May)

Event Time Altitude Azimuth Distance (km) Brightness Sun altitude
Rises 21:45:07 0° 280° (W) 2,039 ? -10.3°
Reaches altitude 10° 21:47:10 10° 290° (WNW) 1,209 ? -10.5°
Maximum altitude 21:49:40 35° 359° (N) 525 ? -10.8°
Drops below altitude 10° 21:52:11 10° 69° (ENE) 1,208 ? -11.1°
Enters shadow 21:52:44 - 73° (ENE) 1,424 ? -11.2°
